COSMOS 1486

Satellite information

Favourite Embed

Satellite Type and Status

PAYLOADIN ORBIT

Key statistics

Satellite COSMOS 1486 at a glance.

Uptime

15369

Days in orbit

Revolutions

≈ 14.3

Per day

Orbit

LEO

Low Earth Orbit

Inclination

74.1

Latest

Satellite identification and parameters

Extended collection of information and parameters for COSMOS 1486.

Object identification

Identified? True

Debris? False

Object name: COSMOS 1486

International designator: 1983-079A

Object number (NORAD): 14240

Object ID (CCSDS): 14240

Country: COMMONWEALTH OF INDEPENDENT STATES (CIS)

Current information (Y/N): Y

RCS size: LARGE

Orbital parameters

Period: 100.367 minutes

Inclination: 74.0554 deg

SMA: 7154.067 km

Apoapsis: 786.204 km

Periapsis: 765.661 km

RAAN: 223.0213 deg

Eccentricy: 0.00143574

Argument of periapsis: 216.6519 deg

Mean anomaly: 262.0688 deg

Mean motion: 14.34740042 rev/day

Mean motion (dot): 0.00000242 rev/day2

B* drag term: 0.000094537528 1/REarth

Two-line elements (TLE)

Creation date: Aug. 31, 2025, 2:26 a.m.

Reference frame: TEME

Reference center: EARTH

Epoch: Aug. 30, 2025, 10:53 a.m. UTC

TLE line 0: 0 COSMOS 1486

TLE line 1: 1 14240U 83079A 25242.45364698 .00000242 00000-0 94538-4 0 9999

TLE line 2: 2 14240 74.0554 223.0213 0014357 216.6519 262.0688 14.34740042200059

Live tracking on map

Real-time ground track for satellite COSMOS 1486.

In-orbit conjunctions

A list of the most updated potential collisions computed for object COSMOS 1486.

Target Orbit TCA Probability of collision Miss distance Type
CZ-6A DEB LEO 2025-08-16 15:22:16 0.0001072964 589.0 (m) DEBRIS
FENGYUN 1C DEB SSO 2025-07-21 07:11:47 0.001335635 457.0 (m) DEBRIS
CZ-6A DEB SSO 2025-04-04 15:12:16 0.0003981203 914.0 (m) DEBRIS
FENGYUN 1C DEB SSO 2025-01-22 13:10:26 0.000105102 773.0 (m) DEBRIS
CZ-4 DEB SSO 2024-10-12 05:56:22 0.0004539119 202.0 (m) DEBRIS

Associated space launch

Military communications satellite

COSMOS 1486 was lifted into orbit during the mission ‘Kosmos-3M | Strela-2M 32’, on board a Kosmos-3M space rocket.

The launch took place on Aug. 3, 1983, 12:40 p.m. from 132/2.

For more information about the launch, click the button.

Launch to space Kosmos-3M | Strela-2M 32
Kosmos-3M | Strela-2M 32

Agency: N/A

Status: Launch Successful

Launch date: Aug. 3, 1983, 12:40 p.m. UTC

Rocket: Kosmos-3M

Launch pad: 132/2

Location: Plesetsk Cosmodrome, Russian Federation

...

Latest news about this satellite

There are no fresh news available about this satellite. Check back as we update our databases every day.


Newsletter sign-up

Weekly statistics, charts and insights to help you stay on top of the space industry.